AO-07 1 07530U 74089B 26261.97448698 -.00000049 00000-0 -13766-4 0 9997 2 07530 101.9920 276.2014 0012003 313.5220 60.0924 12.53699609372275 UO-11 1 14781U 84021B 26262.65247137 .00001068 00000-0 11369-3 0 9997 2 14781 97.8180 227.2421 0006370 223.8823 136.1890 14.91000325271205 LO-19 1 20442U 90005G 26262.29909150 .00000041 00000-0 31291-4 0 9994 2 20442 98.8820 286.6837 0010517 292.1065 67.9002 14.34144566915881 AO-27 1 22825U 93061C 26262.46629116 .00000033 00000-0 29510-4 0 9998 2 22825 98.6789 329.8027 0008443 176.2296 183.8952 14.30961981720480 FO-29 1 24278U 96046B 26262.79767311 .00000004 00000-0 40673-4 0 9995 2 24278 98.5164 98.6980 0349340 210.7684 147.2558 13.53278316485962 GO-32 1 25397U 98043D 26262.25971356 .00000025 00000-0 30897-4 0 9994 2 25397 99.0158 257.4287 0000803 2.6056 357.5126 14.24443307464729 ISS 1 25544U 98067A 26262.82001781 .00006637 00000-0 12771-3 0 9998 2 25544 51.6308 191.7362 0004805 159.3703 200.7480 15.49182662586429 NO-44 1 26931U 01043C 26262.72898005 .00000035 00000-0 44010-4 0 9997 2 26931 67.0532 359.7370 0005829 272.9553 87.0881 14.31984890303989 SO-50 1 27607U 02058C 26262.21781256 .00000644 00000-0 93607-4 0 9990 2 27607 64.5523 198.0161 0071734 245.1928 114.1705 14.83218520278402 CO-55 1 27844U 03031E 26262.30825485 .00000177 00000-0 95427-4 0 9991 2 27844 98.6773 269.7000 0008370 273.0739 86.9482 14.24383016205073 RS-22 1 27939U 03042A 26262.87942220 .00000461 00000-0 79121-4 0 9996 2 27939 98.3485 89.9428 0010832 334.9608 132.0687 14.73605253229495 CO-65 1 32785U 08021C 26262.82116816 .00003381 00000-0 21090-3 0 9997 2 32785 97.8388 246.3157 0010389 70.8153 289.4199 15.10199775999478 CO-66 1 32791U 08021J 26262.31388644 .00013609 00000-0 39426-3 0 9994 2 32791 97.7577 264.9492 0002494 31.6304 328.5088 15.35695897 1719 RS-30 1 32953U 08025A 26262.82118103 .00000019 00000-0 64684-4 0 9991 2 32953 82.5014 296.5827 0020716 104.7452 255.5925 12.43182996831451 SRMSAT 1 37841U 11058D 26262.53878441 .00000357 00000-0 49713-4 0 9999 2 37841 19.9709 208.3682 0011873 161.4712 354.1859 14.11593264771164 ZACUBE-1 1 39417U 13066B 26262.63996313 .00003288 00000-0 25283-3 0 9992 2 39417 97.8154 225.4723 0039051 296.9332 62.7905 15.01842631694905 Delfi-N3xt 1 39428U 13066N 26262.57977789 .00003788 00000-0 32533-3 0 9994 2 39428 97.8284 182.8473 0071329 252.1388 107.2045 14.96123942688732 GOMX-1 1 39430U 13066Q 26262.82794402 .00001379 00000-0 21112-3 0 9999 2 39430 97.6440 97.3263 0128854 132.7830 228.4300 14.69708990683811 LO-74 1 39440U 13066AA 26262.29480330 .00002490 00000-0 22971-3 0 9992 2 39440 97.8991 211.7462 0058691 75.5042 285.2679 14.94291151691046 AO-73 1 39444U 13066AE 26261.88615229 .00005265 00000-0 31844-3 0 9999 2 39444 97.8389 235.4218 0033773 243.5172 116.2592 15.10630929693800 DTUSAT-2 1 40030U 14033W 26262.25540976 .00003952 00000-0 20927-3 0 9996 2 40030 98.0928 266.0623 0006006 275.4401 84.6144 15.16062162666932 LILACSAT-2 1 40908U 15049K 26262.86356675 .00014001 00000-0 21467-3 0 9993 2 40908 97.4558 303.4593 0004597 260.7699 99.3035 15.54426001610444 Lapan A3 1 41603U 16040E 26262.88065330 .00002411 00000-0 76376-4 0 9997 2 41603 97.1574 255.9900 0011374 43.7970 316.4173 15.33622302569322 CAS-2T 1 41847U 16066G 26262.49544772 .00000895 00000-0 13461-3 0 9993 2 41847 98.3749 337.1437 0340775 203.1718 155.3794 14.44849382518412 TechnoSat 1 42829U 17042E 26262.38268154 .00002954 00000-0 20928-3 0 9998 2 42829 97.4405 56.5585 0018401 129.9303 230.3545 15.05421645500876 AO-91 1 43017U 17073E 26262.43152581 .00006579 00000-0 27981-3 0 9997 2 43017 97.4550 127.7214 0147248 3.5421 356.6816 15.13969757479640 S-Net D 1 43186U 18014G 26261.53011626 .00003480 00000-0 17734-3 0 9997 2 43186 97.5248 165.7311 0009599 60.8638 299.3555 15.17405971472917 S-Net B 1 43187U 18014H 26262.66453749 .00003102 00000-0 15856-3 0 9993 2 43187 97.5252 166.8473 0010148 53.4056 306.8110 15.17380598473085 S-Net A 1 43188U 18014J 26262.51763140 .00002886 00000-0 14758-3 0 9995 2 43188 97.5263 166.9287 0010031 54.5027 305.7140 15.17420018473064 S-Net C 1 43189U 18014K 26262.20737338 .00003403 00000-0 17361-3 0 9991 2 43189 97.5280 166.7094 0011239 48.3256 311.8938 15.17368127471562 Ten-Koh 1 43677U 18084G 26262.78631927 .00000737 00000-0 59286-4 0 9990 2 43677 98.0719 99.1525 0009819 153.9496 206.2224 15.03252584430378 PO-101 1 43678U 18084H 26262.85627502 .00001165 00000-0 97015-4 0 9991 2 43678 98.1175 103.2325 0011902 211.0783 148.9737 15.00738875430417 QO-100 1 43700U 18090A 26262.79975166 .00000140 00000-0 00000 0 0 9994 2 43700 0.0189 194.4463 0001227 319.8686 158.0866 1.00270835 28626 MinXSS-2 1 43758U 18099A 26262.78727728 .00034546 00000-0 54120-3 0 9997 2 43758 97.4442 342.2619 0005458 269.0898 90.9730 15.53637224428785 AO-95 1 43770U 18099N 26262.14040089 .00007863 00000-0 28603-3 0 9998 2 43770 97.4284 322.1092 0008599 26.1777 333.9896 15.28486704427567 SNUSat 2 1 43782U 18099AA 26261.13610748 .00004914 00000-0 21133-3 0 9999 2 43782 97.3962 313.1241 0009052 338.1889 21.8961 15.23071167427174 SnugLite 1 43784U 18099AC 26262.37360294 .00007246 00000-0 26050-3 0 9990 2 43784 97.3771 315.7960 0001723 352.5379 7.5835 15.28929372427706 ITASat 1 1 43786U 18099AE 26261.39700705 .00004670 00000-0 21918-3 0 9994 2 43786 97.3931 311.0652 0012942 33.8772 326.3287 15.20055674427063 EAGLET 1 1 43790U 18099AJ 26262.08253954 .00002898 00000-0 16509-3 0 9995 2 43790 97.4137 309.2532 0011617 29.0912 331.0965 15.13531385426531 ESEO 1 43792U 18099AL 26262.36558926 .00001108 00000-0 83218-4 0 9990 2 43792 97.3909 295.6987 0012340 19.9221 340.2485 15.04479355425969 JO-97 1 43803U 18099AX 26262.41966991 .00012286 00000-0 34786-3 0 9998 2 43803 97.4022 325.7200 0003854 296.9693 63.1158 15.36423222428083 Suomi 100 1 43804U 18099AY 26261.11207821 .00008636 00000-0 29651-3 0 9994 2 43804 97.4086 321.2390 0008211 316.6515 43.4079 15.30348668427626 ISAT 1 43879U 18111D 26262.10681972 .00593785 16054-3 11229-2 0 9998 2 43879 97.5724 206.3379 0009429 140.9659 219.2301 16.00711699425970 UWE-4 1 43880U 18111E 26260.79047191 .00032620 00000-0 54348-3 0 9999 2 43880 97.5815 193.8360 0006557 15.6860 344.4594 15.51924947425112 Prox-1 1 44339U 19036A 26262.18081459 .00009751 00000-0 89706-3 0 9991 2 44339 23.9935 205.3865 0005441 50.2357 309.8622 14.92576323387528 Taurus 1 1 44530U 19059C 26262.82990569 .00004460 00000-0 70374-3 0 9994 2 44530 98.6507 73.6487 0008728 20.8574 339.2986 14.72923361372571 TO-108 1 44881U 19093C 26262.81688867 .00000496 00000-0 61820-4 0 9997 2 44881 97.7445 332.7053 0014522 131.0639 229.1834 14.86637299365472 RS-44 1 44909U 19096E 26262.28944271 .00000014 00000-0 20393-4 0 9992 2 44909 82.5168 277.1752 0216360 284.4429 73.2752 12.79749339314389 SALSAT 1 46495U 20068K 26262.29850250 .00005216 00000-0 17704-3 0 9999 2 46495 97.8891 271.1983 0008675 342.6646 17.4296 15.30970049329753 CSS (TIANHE-1) 1 48274U 21035A 26262.83410796 .00014951 00000-0 18266-3 0 9998 2 48274 41.4678 107.3304 0002590 292.1242 67.9322 15.60113249307947 TeikyoSat 4 1 49396U 21102B 26262.30797433 .00001072 00000-0 70076-4 0 9995 2 49396 97.3626 288.1253 0011204 336.6980 23.3741 15.09782401266920 Z-Sat 1 49399U 21102E 26262.88597832 .00002243 00000-0 11051-3 0 9990 2 49399 97.3269 295.3399 0014611 277.4772 82.4802 15.18876879267819 KOSEN 1 1 49402U 21102H 26261.36461506 .00005154 00000-0 19119-3 0 9992 2 49402 97.3104 301.7443 0011884 232.5659 127.4500 15.27970583268249 HO-113 1 50466U 21131B 26262.87874218 .00000290 00000-0 10295-3 0 9993 2 50466 98.4967 354.7525 0004392 158.8221 201.3151 14.41428288248753 SNUGLITE 2 1 52899U 22065F 26262.66391178 .00000594 00000-0 12131-3 0 9996 2 52899 98.2341 47.4102 0008697 88.4094 271.8105 14.64491240224820 UmKA 1 (RS40S) 1 57172U 23091G 26262.81083449 .00003547 00000-0 15943-3 0 9996 2 57172 97.4952 321.1531 0013432 143.6489 216.5662 15.21716212178398 CubeBel-2 (EU11S) 1 57175U 23091K 26262.80681928 .00008953 00000-0 29938-3 0 9999 2 57175 97.4952 326.9598 0010476 134.4939 225.7160 15.31177080178772 RS-38S 1 57189U 23091Z 26262.45842095 .00012669 00000-0 33257-3 0 9997 2 57189 97.4999 333.9756 0008021 94.9184 265.2977 15.38744637179172 SONATE-2 1 59112U 24043Q 26262.22620670 .00046104 00000-0 44592-3 0 9996 2 59112 97.5624 58.9866 0005379 210.5709 149.5238 15.66288288142578 GRBBeta 1 60237U 24128C 26262.37864985 .00002199 00000-0 15861-3 0 9998 2 60237 61.9884 245.6471 0026821 155.3628 204.8753 15.07194513120462 Curium One 1 60242U 24128H 26262.47241676 .00004557 00000-0 26258-3 0 9993 2 60242 61.9773 231.5207 0026034 149.7255 210.5352 15.13669530120726 ROBUSTA-3A 1 60243U 24128J 26262.49208850 .00003780 00000-0 22538-3 0 9997 2 60243 61.9849 234.4591 0028028 146.6956 213.5911 15.12751491120684 CatSat 1 60246U 24125J 26261.37082520 .00106600 00000-0 79289-3 0 9997 2 60246 97.1940 115.9002 0015246 184.1406 175.9734 15.72338818121961 AO-123 1 61781U 24199AY 26262.80447050 .00005835 00000-0 16359-3 0 9992 2 61781 97.2840 130.6274 0012542 336.3667 23.7000 15.36903524148458 LASARsat 1 62391U 24247Q 26261.92112793 .00031824 00000-0 51388-3 0 9997 2 62391 44.9718 93.1754 0009709 226.6699 133.3384 15.52318440 97857 CroCube 1 62394U 24247T 26262.80341867 .00041029 00000-0 59075-3 0 9993 2 62394 44.9694 83.5666 0010409 241.5864 118.3980 15.55353066 98040 JINJUSat 1B 1 63210U 25052A 26262.15572726 .00012097 00000-0 34500-3 0 9993 2 63210 97.3859 159.1528 0005216 100.0311 260.1522 15.36194514 84511 NUSHSAT 1 1 63211U 25052B 26261.44098437 .00017322 00000-0 44422-3 0 9997 2 63211 97.3832 159.3718 0004946 103.6155 256.5642 15.39404458 84471 TEVEL2-4 1 63213U 25052D 26262.50354755 .00013893 00000-0 37737-3 0 9995 2 63213 97.3757 159.1909 0004429 110.6418 249.5302 15.37683840 84595 TEVEL2-5 1 63214U 25052E 26262.47114868 .00014048 00000-0 38435-3 0 9990 2 63214 97.3755 159.0762 0004349 111.7461 248.4247 15.37454822 84582 TEVEL2-6 1 63215U 25052F 26261.50926385 .00014679 00000-0 40221-3 0 9995 2 63215 97.3757 158.0953 0004217 114.8567 245.3116 15.37399635 84436 TEVEL2-1 1 63217U 25052H 26262.16012861 .00013111 00000-0 36695-3 0 9995 2 63217 97.3727 158.2529 0004202 121.9351 238.2303 15.36766162 84510 TEVEL2-3 1 63218U 25052J 26262.47623284 .00013663 00000-0 38124-3 0 9998 2 63218 97.3733 158.6068 0003970 121.0354 239.1280 15.36851694 84569 TEVEL2-2 1 63219U 25052K 26262.15970493 .00013009 00000-0 36394-3 0 9992 2 63219 97.3728 158.2570 0004214 122.5540 237.6112 15.36780306 84516 TEVEL2-9 1 63237U 25052AD 26260.70078304 .00012033 00000-0 36197-3 0 9998 2 63237 97.3791 155.9520 0006509 152.5422 207.6166 15.34508258 84200 TEVEL2-7 1 63238U 25052AE 26261.93559823 .00011822 00000-0 35948-3 0 9993 2 63238 97.3793 157.0587 0006577 150.2751 209.8867 15.34170084 84387 TEVEL2-8 1 63239U 25052AF 26261.16192927 .00011984 00000-0 36466-3 0 9992 2 63239 97.3792 156.2599 0006556 151.7923 208.3676 15.34143407 84263 SPIRONE 1 66657U 25274H 26262.03934476 .00001314 00000-0 12892-3 0 9998 2 66657 97.7482 190.0062 0013522 64.7772 295.4848 14.93856107 44230 K-HERO 1 66660U 25274L 26261.54984893 .00001759 00000-0 16893-3 0 9993 2 66660 97.7491 189.7520 0015417 69.9156 290.3722 14.94248246 44174 SNUGLITE-III DURI 1 66661U 25274M 26262.54071199 .00001364 00000-0 13218-3 0 9991 2 66661 97.7488 190.7501 0015987 67.8422 292.4493 14.94256298 44328 SAKHACUBE-CHOLBON 1 67290U 25313AU 26261.49194124 .00007121 00000-0 27627-3 0 9997 2 67290 97.3855 335.4190 0009559 35.7955 324.3922 15.26373748 40207 RS95S (QMR-KWT-2) 1 67291U 25313AV 26261.43871697 .00010335 00000-0 37511-3 0 9993 2 67291 97.3844 335.7841 0008824 33.4783 326.7013 15.28472222 40228 Ten-Koh2 1 68261U 25241B 26262.61482258 .00004060 00000-0 17425-3 0 9993 2 68261 51.6575 229.8503 0008224 98.9139 261.2771 15.24912673 29319 JACK-002 1 68417U 26067B 26262.63505558 .00004873 00000-0 22676-3 0 9990 2 68417 97.4671 220.1781 0001319 19.7204 340.4082 15.20404539 26293 DISCO 2 1 68431U 26067R 26262.66854331 .00005280 00000-0 24603-3 0 9990 2 68431 97.4706 220.2131 0003562 56.1882 303.9692 15.20320471 26290 HADES-SA (SpinnyONE) 1 68446U 26067AG 26260.81483313 .00014198 00000-0 62496-3 0 9999 2 68446 97.4497 217.9593 0008915 105.6833 254.5387 15.21924785 26001 PARUS-6U1 1 68456U 26067AS 26262.65174065 .00003779 00000-0 18712-3 0 9990 2 68456 97.4656 219.6714 0007515 94.0687 266.1407 15.18366655 26268 SAL-E 1 68458U 26067AU 26262.62171188 .00005631 00000-0 27266-3 0 9995 2 68458 97.4581 219.5416 0007705 101.0192 259.1909 15.18934539 26267 FSI-SAT 2 1 68792U 26088A 26262.36289926 .00003658 00000-0 24475-3 0 9996 2 68792 97.5197 49.3766 0015032 141.8376 218.3919 15.07467091 22476 OrigamiSat 2 1 68795U 26088D 26262.74461918 .00008621 00000-0 52369-3 0 9992 2 68795 97.5191 50.2424 0015663 112.9617 247.3267 15.10625804 22562 ARICA 2 1 68796U 26088E 26262.66985394 .00002789 00000-0 17951-3 0 9990 2 68796 97.5195 50.0220 0016871 112.8379 247.4634 15.09071214 22540 WASEDA-SAT-ZERO-II 1 68797U 26088F 26262.64357720 .00004134 00000-0 26074-3 0 9997 2 68797 97.5183 50.0502 0016405 112.7189 247.5777 15.09553759 22540 MANGARO-II-Piscus 1 68798U 26088G 26260.91223527 .00002637 00000-0 16847-3 0 9996 2 68798 97.5200 48.3924 0020044 121.2776 239.0419 15.09344135 22286 CO-128 1 69912U 26156AV 26262.03566632 .00000910 00000-0 97691-4 0 9992 2 69912 97.7471 161.1695 0000909 245.4103 114.7020 14.90952702 10982 MARINA 1 69920U 26156BD 26262.44666363 .00001315 00000-0 13464-3 0 9993 2 69920 97.7440 161.6799 0005836 270.1869 89.8681 14.92176795 11051 IO-86 1 40931U 26199.45381863 .00000000 00000-0 77536-4 0 07 2 40931 6.0006 322.6653 0012733 338.8432 273.6875 14.79294310 03 LILIUM-4 1 71922C 26067AC 26089.50133053 -.00014632 00000 0 -74472-3 0 04 2 71922 97.4497 49.1617 0004341 5.9603 355.7042 15.16896692 16